EW4224 Weather Reports


time (UTC)temp
F
wind
direction
speed
knots
gust
knots
rain 1hr
in
rain 24hr
in
rain mn
in
humidity
%
barometer
mb
20260901133603 78 203 2.6 5.2 0.00 0.00 0.00 89 1045.6
20260901132703 78 193 2.6 5.2 0.00 0.00 0.00 91 1045.7
20260901131803 76 191 1.7 4.3 0.00 0.00 0.00 93 1045.6
20260901130903 76 189 2.6 4.3 0.00 0.00 0.00 94 1045.8
20260901130003 75 189 2.6 4.3 0.00 0.00 0.00 95 1045.7
20260901125614 75 187 2.6 4.3 0.00 0.00 0.00 95 1045.6
20260901124713 74 186 1.7 3.5 0.00 0.00 0.00 96 1045.7
20260901123603 74 188 1.7 3.5 0.00 0.00 0.00 97 1045.9
20260901122703 73 195 1.7 3.5 0.00 0.00 0.00 97 1046.0
20260901121803 73 184 1.7 3.5 0.00 0.00 0.00 98 1045.7
20260901120903 73 183 1.7 3.5 0.00 0.00 0.00 98 1045.8
20260901120003 73 196 0.9 3.5 0.00 0.00 0.00 98 1045.7
20260901115403 73 197 0.9 2.6 0.00 0.00 0.00 98 1045.4
20260901114503 73 201 0.9 2.6 0.00 0.01 0.00 98 1045.4
20260901113603 73 174 0.9 2.6 0.00 0.01 0.00 98 1045.4
20260901112703 73 185 1.7 4.3 0.00 0.01 0.00 98 1045.2
20260901112013 73 189 1.7 4.3 0.00 0.01 0.00 98 1045.3
20260901111112 73 181 0.9 3.5 0.00 0.01 0.00 98 1045.1
20260901110003 73 157 0.9 3.5 0.00 0.01 0.00 98 1044.9
20260901105613 73 140 0.9 2.6 0.00 0.01 0.00 98 1044.7
20260901104713 73 182 1.7 3.5 0.00 0.01 0.00 98 1044.7
20260901103603 73 128 0.9 2.6 0.00 0.01 0.00 98 1044.6
20260901102703 73 178 0.9 4.3 0.00 0.02 0.00 98 1044.9
20260901101803 73 168 1.7 4.3 0.00 0.02 0.00 97 1044.6
20260901100903 74 197 0.9 2.6 0.00 0.02 0.00 97 1044.6
20260901100003 74 175 0.9 2.6 0.00 0.02 0.00 96 1044.7
20260901095403 74 360 0.9 3.5 0.00 0.02 0.00 96 1044.7
20260901094503 74 195 1.7 4.3 0.00 0.02 0.00 96 1044.7
20260901093603 74 198 1.7 4.3 0.00 0.02 0.00 96 1044.7
20260901092703 74 184 0.9 3.5 0.00 0.02 0.00 96 1044.5
20260901092014 74 227 0.9 3.5 0.00 0.02 0.00 96 1044.6
20260901090903 74 186 1.7 3.5 0.00 0.02 0.00 96 1044.5
20260901090003 74 195 0.9 4.3 0.00 0.02 0.00 96 1044.6
20260901085615 74 208 0.9 4.3 0.00 0.02 0.00 96 1044.7
20260901084714 74 333 1.7 4.3 0.00 0.02 0.00 96 1044.4
20260901083603 74 192 0.9 3.5 0.00 0.02 0.00 96 1044.5
20260901082912 74 180 1.7 4.3 0.00 0.02 0.00 95 1044.6
20260901081803 74 181 2.6 7.0 0.00 0.02 0.00 95 1044.5
20260901080904 74 199 0.9 3.5 0.00 0.02 0.00 95 1044.5
20260901080003 74 1 1.7 5.2 0.00 0.02 0.00 94 1044.6
20260901075403 74 258 1.7 5.2 0.00 0.02 0.00 94 1044.7
20260901074503 74 204 2.6 5.2 0.00 0.02 0.00 94 1044.4
20260901073603 74 179 1.7 5.2 0.00 0.02 0.00 94 1044.6
20260901072703 75 191 2.6 5.2 0.00 0.02 0.00 94 1044.6
20260901071804 75 198 2.6 5.2 0.00 0.02 0.00 94 1044.5
20260901070903 75 204 1.7 2.6 0.00 0.02 0.00 94 1044.4
20260901070003 75 202 1.7 2.6 0.00 0.02 0.00 94 1044.3
20260901065614 75 201 1.7 2.6 0.00 0.02 0.00 94 1044.2
20260901064503 75 201 1.7 2.6 0.00 0.02 0.00 94 1044.3
20260901063603 75 205 1.7 2.6 0.00 0.02 0.00 93 1044.4
20260901062703 75 204 1.7 2.6 0.00 0.02 0.00 94 1044.4
20260901061803 75 201 1.7 2.6 0.00 0.02 0.00 94 1044.3
20260901061114 75 198 1.7 1.7 0.00 0.02 0.00 94 1044.3
20260901060003 75 202 0.9 1.7 0.00 0.02 0.00 93 1044.3
20260901055403 76 202 0.9 1.7 0.00 0.02 0.00 93 1044.4
20260901054503 76 200 0.9 1.7 0.00 0.02 0.00 93 1044.2
20260901053814 76 209 0.9 1.7 0.00 0.02 0.00 93 1044.3
20260901052913 76 204 0.9 1.7 0.00 0.02 0.00 93 1044.4
20260901051803 76 204 0.9 1.7 0.00 0.02 0.00 93 1044.2
20260901050903 76 208 1.7 2.6 0.00 0.02 0.00 93 1044.4
20260901050003 76 204 1.7 2.6 0.00 0.02 0.00 92 1044.3
20260901045403 76 201 1.7 2.6 0.00 0.02 0.02 92 1044.2
20260901044505 76 206 1.7 2.6 0.00 0.02 0.02 92 1044.4
20260901043603 76 204 1.7 2.6 0.00 0.02 0.02 92 1044.4
20260901042703 76 208 0.9 1.7 0.00 0.02 0.02 92 1044.7
20260901041803 76 209 1.7 1.7 0.00 0.02 0.02 92 1044.6
20260901041114 76 203 1.7 2.6 0.00 0.02 0.02 91 1044.5
20260901040003 76 203 1.7 2.6 0.00 0.02 0.02 91 1044.4
20260901035403 76 209 0.9 2.6 0.00 0.02 0.02 91 1044.5
20260901034503 76 213 0.9 1.7 0.00 0.02 0.02 91 1044.4
20260901033603 76 222 0.9 1.7 0.00 0.02 0.02 91 1044.6
20260901032703 77 242 0.0 0.9 0.00 0.02 0.02 90 1044.8
20260901031803 77 236 0.0 0.9 0.00 0.02 0.02 89 1044.5
20260901030903 78 214 0.0 1.7 0.00 0.02 0.02 88 1044.5
20260901030003 78 194 0.9 2.6 0.00 0.02 0.02 88 1044.6
20260901025403 78 191 1.7 2.6 0.00 0.02 0.02 88 1044.8
20260901024503 78 206 0.9 2.6 0.00 0.02 0.02 88 1044.7
20260901023603 79 187 1.7 3.5 0.00 0.02 0.02 86 1044.6
20260901022703 79 181 1.7 2.6 0.00 0.02 0.02 86 1044.8
20260901021803 78 160 0.9 2.6 0.00 0.03 0.02 89 1044.6
20260901021113 78 273 0.0 1.7 0.00 0.03 0.02 88 1044.9
20260901020214 79 281 0.0 0.9 0.00 0.03 0.02 87 1044.8
20260901015403 79 11 0.0 1.7 0.00 0.03 0.02 87 1044.8
20260901014503 79 28 0.0 1.7 0.00 0.03 0.02 87 1044.6
20260901013603 79 179 0.9 5.2 0.00 0.04 0.02 86 1044.4
20260901012703 80 171 2.6 4.3 0.00 0.04 0.02 86 1044.3
20260901011803 80 171 2.6 4.3 0.00 0.04 0.02 86 1044.2
20260901010903 80 179 1.7 4.3 0.00 0.05 0.02 86 1044.1
20260901010003 80 176 2.6 5.2 0.00 0.05 0.02 86 1043.9
20260901005403 80 182 1.7 4.3 0.00 0.06 0.02 86 1044.0
20260901004503 81 169 0.0 1.7 0.00 0.06 0.02 85 1044.2
20260901003603 82 169 0.9 2.6 0.00 0.06 0.02 83 1044.4
20260901002703 82 190 0.9 2.6 0.00 0.06 0.02 83 1044.2
20260901002013 82 184 0.9 2.6 0.00 0.06 0.02 82 1044.2
20260901000903 83 219 0.0 1.7 0.00 0.06 0.02 83 1043.9
20260901000003 83 238 0.0 1.7 0.00 0.06 0.02 83 1043.9
20260831235613 83 221 0.9 2.6 0.00 0.06 0.02 82 1043.8
20260831234713 83 213 1.7 3.5 0.00 0.06 0.02 82 1043.5
20260831233603 84 195 0.9 4.3 0.00 0.06 0.02 81 1043.3
20260831232703 84 186 3.5 7.0 0.00 0.06 0.02 81 1042.9
20260831231804 84 183 3.5 7.0 0.00 0.06 0.02 81 1042.2
20260831230903 83 208 1.7 3.5 0.00 0.06 0.02 81 1044.0
20260831230213 83 254 0.9 3.5 0.00 0.06 0.02 83 1044.4
20260831225613 84 258 0.9 1.7 0.00 0.06 0.02 83 1044.6
20260831224503 84 218 1.7 2.6 0.00 0.06 0.02 80 1043.8
20260831223603 85 218 1.7 3.5 0.00 0.06 0.02 79 1043.5
20260831222703 85 194 1.7 2.6 0.00 0.07 0.02 81 1043.4
20260831221803 85 240 0.9 1.7 0.00 0.07 0.02 78 1043.7
20260831220903 86 230 0.9 3.5 0.00 0.08 0.02 75 1043.7
20260831220003 85 221 1.7 3.5 0.00 0.08 0.02 74 1043.8
20260831215403 85 225 1.7 3.5 0.00 0.08 0.02 73 1043.8
20260831214503 86 219 1.7 4.3 0.00 0.08 0.02 72 1043.5
20260831213603 86 203 2.6 4.3 0.00 0.08 0.02 72 1043.5
20260831212912 87 181 2.6 6.1 0.00 0.08 0.02 70 1043.3
20260831211803 86 195 2.6 7.0 0.00 0.08 0.02 71 1043.3
20260831210903 86 189 2.6 7.0 0.00 0.08 0.02 72 1043.0
20260831210003 86 157 4.3 10.4 0.00 0.08 0.02 71 1042.9
20260831205403 87 168 3.5 10.4 0.00 0.08 0.02 71 1043.3
20260831204713 88 169 2.6 6.1 0.00 0.09 0.02 71 1043.2
20260831203603 88 187 1.7 5.2 0.00 0.09 0.02 68 1043.4
20260831202703 88 219 1.7 5.2 0.00 0.09 0.02 68 1043.6
20260831201803 87 200 1.7 3.5 0.00 0.09 0.02 73 1043.9
20260831201113 87 192 0.9 2.6 0.00 0.09 0.02 73 1043.8
20260831200003 86 214 1.7 4.3 0.00 0.09 0.02 71 1044.2
20260831195614 86 225 1.7 4.3 0.00 0.09 0.02 70 1044.1
20260831194503 86 228 1.7 5.2 0.00 0.09 0.02 70 1044.1
20260831193603 86 202 2.6 5.2 0.00 0.10 0.02 70 1043.9
20260831192703 86 207 3.5 7.0 0.00 0.10 0.02 71 1043.9
20260831191803 84 198 2.6 5.2 0.00 0.11 0.02 73 1043.7
20260831190903 85 203 3.5 7.0 0.00 0.11 0.02 69 1043.9
20260831190003 86 203 3.5 7.0 0.00 0.11 0.02 66 1043.8
20260831185403 86 204 4.3 7.8 0.00 0.11 0.02 66 1044.0
20260831184503 87 208 3.5 8.7 0.00 0.11 0.02 63 1044.1
20260831183814 87 205 3.5 8.7 0.00 0.11 0.02 63 1044.2
20260831182703 86 209 4.3 9.6 0.00 0.12 0.02 64 1044.1
20260831181803 86 203 4.3 9.6 0.00 0.12 0.02 64 1044.1
20260831180903 85 195 4.3 8.7 0.00 0.12 0.02 65 1044.0
20260831180003 86 199 5.2 10.4 0.00 0.12 0.02 63 1044.2
20260831175403 86 200 5.2 10.4 0.00 0.12 0.02 65 1044.1
20260831174503 86 187 6.1 12.2 0.00 0.12 0.02 63 1044.1
20260831173603 85 190 5.2 9.6 0.00 0.12 0.02 65 1044.3
20260831172703 84 193 5.2 12.2 0.00 0.12 0.02 68 1044.4
20260831171803 83 191 4.3 12.2 0.00 0.12 0.02 67 1044.6
20260831170903 83 188 4.3 10.4 0.00 0.12 0.02 67 1044.8
20260831170003 83 196 4.3 11.3 0.00 0.12 0.02 68 1044.8
20260831165403 82 186 4.3 11.3 0.00 0.12 0.02 68 1044.9
20260831164503 81 172 5.2 12.2 0.00 0.12 0.02 69 1045.1
20260831163603 81 179 4.3 12.2 0.00 0.12 0.02 69 1045.0
20260831162703 80 177 5.2 11.3 0.00 0.12 0.02 71 1044.8
20260831161803 80 175 5.2 12.2 0.00 0.12 0.02 71 1044.9
20260831160903 79 176 5.2 13.0 0.00 0.12 0.02 72 1045.0
20260831160003 78 175 4.3 9.6 0.00 0.12 0.02 73 1045.0
20260831155403 78 175 3.5 7.8 0.00 0.12 0.02 74 1045.2
20260831154503 78 179 4.3 8.7 0.00 0.12 0.02 74 1045.1
20260831153603 77 174 3.5 7.8 0.00 0.12 0.02 76 1045.2
20260831152703 76 176 3.5 9.6 0.00 0.12 0.02 78 1045.3
20260831151803 76 173 3.5 7.8 0.00 0.12 0.02 77 1045.2
20260831150903 75 178 3.5 7.0 0.00 0.12 0.02 79 1045.2
20260831150003 75 174 3.5 6.1 0.00 0.12 0.02 80 1045.6
20260831145403 75 175 3.5 7.8 0.00 0.12 0.02 81 1045.2
20260831144503 74 174 3.5 8.7 0.00 0.12 0.02 81 1045.2
20260831143603 74 174 2.6 7.0 0.00 0.12 0.02 82 1045.1
20260831142703 74 171 3.5 8.7 0.00 0.12 0.02 82 1045.2
20260831141803 73 175 3.5 9.6 0.00 0.12 0.02 82 1045.2
20260831140903 73 179 2.6 6.1 0.00 0.12 0.02 84 1044.9
20260831140003 72 179 2.6 6.1 0.00 0.12 0.02 85 1045.0
20260831135403 72 176 2.6 6.1 0.00 0.12 0.02 84 1045.0
20260831134503 72 177 3.5 6.1 0.00 0.12 0.02 85 1045.1